FW8113 Weather Reports


time (UTC)temp
C
wind
direction
speed
KPH
gust
KPH
rain 1hr
cm
rain 24hr
cm
rain mn
cm
humidity
%
barometer
mb
20260506190452 16 113 4.8 8.0 0.00 0.97 0.97 97 1005.3
20260506185948 16 101 0.0 3.2 0.15 0.94 0.94 98 1004.9
20260506185446 16 115 0.0 0.0 0.15 0.94 0.94 97 1005.3
20260506184942 16 66 0.0 4.8 0.15 0.94 0.94 97 1005.3
20260506184439 16 116 0.0 0.0 0.13 0.91 0.91 97 1005.3
20260506183936 16 112 0.0 0.0 0.10 0.89 0.89 97 1005.3
20260506183432 16 307 1.6 3.2 0.08 0.86 0.86 97 1005.3
20260506182929 16 86 0.0 0.0 0.05 0.84 0.84 97 1005.3
20260506182426 16 100 0.0 0.0 0.05 0.84 0.84 97 1005.3
20260506181924 16 126 0.0 0.0 0.05 0.84 0.84 97 1005.3
20260506181422 16 118 0.0 0.0 0.05 0.84 0.84 97 1005.6
20260506180918 16 100 0.0 3.2 0.05 0.84 0.84 97 1005.6
20260506180414 16 90 0.0 0.0 0.03 0.81 0.81 97 1005.6
20260506175911 16 85 0.0 0.0 0.10 0.79 0.79 97 1005.6
20260506175408 16 98 1.6 3.2 0.10 0.79 0.79 97 1005.6
20260506174905 16 92 0.0 3.2 0.10 0.79 0.79 97 1005.6
20260506174403 16 104 1.6 3.2 0.08 0.76 0.76 97 1005.6
20260506173859 16 104 0.0 0.0 0.08 0.76 0.76 97 1005.6
20260506173356 16 77 8.0 11.3 0.05 0.74 0.74 97 1005.6
20260506172853 16 102 0.0 0.0 0.05 0.74 0.74 97 1005.6
20260506172350 16 136 0.0 3.2 0.05 0.74 0.74 97 1005.3
20260506171847 16 106 0.0 0.0 0.03 0.71 0.71 97 1005.6
20260506171344 16 83 0.0 3.2 0.03 0.71 0.71 97 1005.6
20260506170842 15 45 0.0 3.2 0.03 0.71 0.71 97 1005.6
20260506170338 15 117 0.0 0.0 0.00 0.69 0.69 97 1005.6
20260506165837 15 127 4.8 4.8 0.23 0.69 0.69 97 1005.6
20260506165335 15 130 0.0 0.0 0.20 0.66 0.66 97 1005.9
20260506164831 15 107 0.0 0.0 0.20 0.66 0.66 97 1005.9
20260506164328 15 104 0.0 0.0 0.18 0.64 0.64 97 1006.3
20260506163825 15 103 0.0 0.0 0.18 0.64 0.64 97 1006.3
20260506163320 15 102 0.0 0.0 0.15 0.61 0.61 97 1005.9
20260506162815 15 106 0.0 0.0 0.13 0.58 0.58 97 1006.3
20260506162314 14 106 0.0 0.0 0.10 0.56 0.56 97 1006.3
20260506161811 14 105 0.0 0.0 0.08 0.53 0.53 96 1006.3
20260506161308 14 103 0.0 0.0 0.08 0.53 0.53 96 1006.3
20260506160806 14 103 0.0 0.0 0.05 0.51 0.51 96 1006.3
20260506160302 14 100 0.0 0.0 0.03 0.48 0.48 96 1006.3
20260506155801 13 106 0.0 0.0 0.20 0.46 0.46 96 1006.6
20260506155257 13 103 0.0 0.0 0.18 0.43 0.43 96 1006.6
20260506153410 13 110 0.0 0.0 0.10 0.36 0.36 96 1006.9
20260506152907 13 104 0.0 0.0 0.10 0.36 0.36 96 1006.9
20260506152404 13 104 0.0 0.0 0.08 0.33 0.33 96 1007.3
20260506151903 13 104 0.0 0.0 0.08 0.33 0.33 96 1007.3
20260506151359 13 103 0.0 0.0 0.05 0.30 0.30 95 1006.9
20260506150857 13 104 0.0 0.0 0.03 0.28 0.28 95 1006.9
20260506150353 13 104 0.0 0.0 0.03 0.28 0.28 95 1006.9
20260506145849 13 104 0.0 0.0 0.20 0.25 0.25 95 1007.3
20260506145345 13 104 0.0 0.0 0.20 0.25 0.25 95 1007.3
20260506144843 13 103 0.0 0.0 0.18 0.23 0.23 95 1007.6
20260506144340 13 104 0.0 0.0 0.18 0.23 0.23 95 1007.3
20260506143838 13 103 0.0 0.0 0.15 0.20 0.20 95 1007.6
20260506143335 13 103 0.0 0.0 0.13 0.18 0.18 95 1007.3
20260506142833 13 104 0.0 0.0 0.10 0.15 0.15 95 1007.6
20260506142331 13 103 0.0 0.0 0.08 0.13 0.13 95 1008.0
20260506141829 13 103 0.0 0.0 0.05 0.10 0.10 94 1008.0
20260506141327 13 103 0.0 0.0 0.03 0.08 0.08 94 1008.0
20260506140825 13 103 0.0 0.0 0.03 0.08 0.08 94 1008.0
20260506140321 13 98 0.0 0.0 0.00 0.05 0.05 94 1007.6
20260506135818 13 103 0.0 0.0 0.05 0.05 0.05 94 1007.6
20260506135314 13 105 0.0 0.0 0.03 0.03 0.03 94 1008.0
20260506134811 13 106 0.0 0.0 0.03 0.03 0.03 94 1007.6
20260506134308 13 106 0.0 0.0 0.03 0.03 0.03 94 1007.6
20260506133804 13 106 0.0 0.0 0.03 0.03 0.03 94 1007.6
20260506133301 13 106 0.0 0.0 0.03 0.03 0.03 94 1007.3
20260506132758 13 106 0.0 0.0 0.03 0.03 0.03 94 1007.6
20260506132255 13 105 0.0 0.0 0.03 0.03 0.03 94 1007.3
20260506131754 13 111 0.0 0.0 0.03 0.03 0.03 94 1007.3
20260506131249 13 98 0.0 0.0 0.03 0.03 0.03 94 1007.6
20260506130746 13 100 0.0 0.0 0.00 0.00 0.00 94 1007.3
20260506130243 13 103 0.0 0.0 0.00 0.00 0.00 94 1007.6
20260506125741 13 110 0.0 0.0 0.00 0.00 0.00 94 1008.0
20260506125239 13 100 0.0 0.0 0.00 0.00 0.00 94 1007.3
20260506124737 13 104 0.0 0.0 0.00 0.00 0.00 94 1007.3
20260506124234 13 103 0.0 0.0 0.00 0.00 0.00 94 1007.6
20260506123731 12 104 0.0 0.0 0.00 0.00 0.00 94 1007.6
20260506123230 12 104 0.0 0.0 0.00 0.00 0.00 93 1008.0
20260506122726 12 93 0.0 0.0 0.00 0.00 0.00 94 1008.0
20260506122224 12 104 0.0 0.0 0.00 0.00 0.00 94 1008.0
20260506121722 12 100 0.0 0.0 0.00 0.00 0.00 94 1008.6
20260506121218 12 98 0.0 0.0 0.00 0.00 0.00 94 1008.6
20260506120716 12 98 0.0 0.0 0.00 0.00 0.00 94 1008.3
20260506120213 12 112 0.0 0.0 0.00 0.00 0.00 94 1008.3
20260506115711 12 106 0.0 0.0 0.00 0.00 0.00 94 1008.3
20260506115209 12 95 0.0 0.0 0.00 0.00 0.00 94 1008.3
20260506114706 12 113 0.0 0.0 0.00 0.00 0.00 94 1008.6
20260506114204 12 103 0.0 0.0 0.00 0.00 0.00 94 1008.3
20260506113703 12 119 0.0 0.0 0.00 0.00 0.00 94 1008.0
20260506113200 12 101 0.0 0.0 0.00 0.00 0.00 94 1008.0
20260506112655 12 108 0.0 0.0 0.00 0.00 0.00 94 1008.0
20260506112153 12 102 0.0 0.0 0.00 0.00 0.00 94 1008.0
20260506111651 12 103 0.0 0.0 0.00 0.00 0.00 95 1008.0
20260506111148 12 137 1.6 3.2 0.00 0.00 0.00 95 1008.0
20260506110646 12 113 0.0 0.0 0.00 0.00 0.00 95 1007.3
20260506110143 12 100 0.0 0.0 0.00 0.00 0.00 95 1007.6
20260506105639 12 104 0.0 0.0 0.00 0.00 0.00 95 1007.6
20260506105136 12 110 0.0 0.0 0.00 0.00 0.00 95 1008.0
20260506104634 12 77 0.0 3.2 0.00 0.00 0.00 95 1007.6
20260506104132 12 98 0.0 0.0 0.00 0.00 0.00 95 1007.3
20260506103629 12 79 0.0 3.2 0.00 0.00 0.00 95 1007.6
20260506103125 12 103 0.0 0.0 0.00 0.00 0.00 95 1008.0
20260506102624 12 103 0.0 0.0 0.00 0.00 0.00 95 1007.6
20260506102121 12 105 0.0 0.0 0.00 0.00 0.00 95 1007.3
20260506101617 12 105 0.0 0.0 0.00 0.00 0.00 95 1007.3
20260506101114 12 98 0.0 0.0 0.00 0.00 0.00 94 1007.6
20260506100613 12 94 0.0 0.0 0.00 0.00 0.00 95 1007.6
20260506100110 12 104 0.0 0.0 0.00 0.00 0.00 94 1007.3
20260506095609 12 106 0.0 0.0 0.00 0.00 0.00 94 1007.3
20260506095105 12 107 0.0 0.0 0.00 0.00 0.00 94 1007.3
20260506094603 12 104 0.0 0.0 0.00 0.00 0.00 94 1007.3
20260506094100 12 104 0.0 0.0 0.00 0.00 0.00 94 1007.3
20260506093559 12 104 0.0 0.0 0.00 0.00 0.00 94 1007.6
20260506093055 12 104 0.0 0.0 0.00 0.00 0.00 94 1007.3
20260506092554 12 105 0.0 0.0 0.00 0.00 0.00 94 1007.3
20260506092050 12 104 0.0 0.0 0.00 0.00 0.00 94 1007.3
20260506091548 12 102 0.0 0.0 0.00 0.00 0.00 94 1007.3
20260506091045 12 102 0.0 0.0 0.00 0.00 0.00 94 1007.3
20260506090543 12 104 0.0 0.0 0.00 0.00 0.00 94 1007.6
20260506090039 12 104 0.0 0.0 0.00 0.00 0.00 94 1007.6
20260506085536 12 104 0.0 0.0 0.00 0.00 0.00 94 1007.3
20260506085032 12 104 0.0 0.0 0.00 0.00 0.00 94 1007.6
20260506084530 12 104 0.0 0.0 0.00 0.00 0.00 94 1007.6
20260506084025 12 104 0.0 0.0 0.00 0.00 0.00 94 1007.6
20260506083523 12 104 0.0 0.0 0.00 0.00 0.00 94 1007.6
20260506083020 12 104 0.0 0.0 0.00 0.00 0.00 93 1007.6
20260506082517 12 104 0.0 0.0 0.00 0.00 0.00 93 1008.0
20260506082013 12 104 0.0 0.0 0.00 0.00 0.00 93 1008.0
20260506081511 12 104 0.0 0.0 0.00 0.00 0.00 93 1008.0
20260506081008 12 104 0.0 0.0 0.00 0.00 0.00 93 1007.6
20260506080506 12 104 0.0 0.0 0.00 0.00 0.00 93 1008.0
20260506073449 12 104 0.0 0.0 0.00 0.00 0.00 93 1008.3
20260506072946 12 104 0.0 0.0 0.00 0.00 0.00 93 1008.6
20260506072443 12 104 0.0 0.0 0.00 0.00 0.00 93 1008.6
20260506071941 13 104 0.0 0.0 0.00 0.00 0.00 93 1008.6
20260506071439 13 104 0.0 0.0 0.00 0.00 0.00 93 1008.3
20260506070935 13 104 0.0 0.0 0.00 0.00 0.00 93 1008.6
20260506070432 13 104 0.0 0.0 0.00 0.00 0.00 93 1008.6
20260506062410 13 102 0.0 0.0 0.00 0.00 0.00 92 1009.0
20260506061906 13 102 0.0 0.0 0.00 0.00 0.00 92 1009.0
20260506061403 13 102 0.0 0.0 0.00 0.00 0.00 92 1009.0
20260506060901 13 100 0.0 0.0 0.00 0.00 0.00 92 1009.0
20260506060358 13 100 0.0 0.0 0.00 0.00 0.00 92 1009.0
20260506051330 13 114 0.0 0.0 0.00 0.00 0.00 92 1009.0
20260506050828 13 117 0.0 0.0 0.00 0.00 0.00 92 1009.0
20260506050325 13 110 0.0 0.0 0.00 0.00 0.00 91 1009.0
20260506044815 14 110 0.0 0.0 0.00 0.00 0.00 91 1009.3
20260506044314 14 107 0.0 0.0 0.00 0.00 0.00 91 1009.3
20260506043810 14 104 0.0 0.0 0.00 0.00 0.00 90 1009.0
20260506043308 14 111 0.0 0.0 0.00 0.00 0.00 90 1009.0
20260506042806 14 104 0.0 0.0 0.00 0.00 0.00 90 1009.0
20260506042305 14 101 0.0 0.0 0.00 0.00 0.00 90 1009.3
20260506041803 14 131 0.0 0.0 0.00 0.00 0.00 90 1009.0
20260506041259 14 123 0.0 0.0 0.00 0.00 0.00 91 1009.0
20260506040757 14 115 0.0 0.0 0.00 0.00 0.00 91 1009.0
20260506040254 14 112 0.0 0.0 0.00 0.00 0.00 91 1009.0
20260506035750 14 105 0.0 0.0 0.00 0.23 0.23 92 1009.0
20260506035247 14 109 0.0 0.0 0.00 0.23 0.23 92 1009.0
20260506034744 14 100 3.2 4.8 0.00 0.23 0.23 93 1009.0
20260506034242 15 110 0.0 0.0 0.00 0.23 0.23 93 1008.6
20260506033738 15 26 4.8 8.0 0.00 0.23 0.23 94 1008.6
20260506033236 16 162 3.2 4.8 0.00 0.23 0.23 94 1008.3
20260506032732 16 114 1.6 3.2 0.00 0.23 0.23 94 1008.3
20260506032229 16 102 0.0 0.0 0.00 0.23 0.23 94 1008.3
20260506031726 16 115 0.0 0.0 0.00 0.23 0.23 94 1008.3
20260506031223 16 104 0.0 0.0 0.00 0.23 0.23 94 1008.0
20260506030722 16 116 0.0 0.0 0.00 0.23 0.23 94 1008.3
20260506030219 16 94 0.0 0.0 0.00 0.23 0.23 94 1008.0
20260506025715 16 82 0.0 3.2 0.15 0.23 0.23 93 1008.3
20260506025212 17 99 0.0 0.0 0.13 0.20 0.20 93 1008.6
20260506024709 17 116 0.0 0.0 0.03 0.10 0.10 93 1009.0
20260506024205 17 111 0.0 0.0 0.00 0.08 0.08 93 1008.0
20260506023702 17 112 0.0 0.0 0.00 0.08 0.08 93 1008.0
20260506023159 17 103 0.0 0.0 0.00 0.08 0.08 92 1008.0
20260506022656 17 105 0.0 0.0 0.00 0.08 0.08 92 1008.0
20260506022153 17 106 0.0 0.0 0.00 0.08 0.08 92 1008.0
20260506021651 17 106 0.0 0.0 0.00 0.08 0.08 92 1008.0
20260506021148 17 106 0.0 0.0 0.00 0.08 0.08 92 1008.0
20260506020645 17 98 0.0 0.0 0.00 0.08 0.08 91 1008.0
20260506020143 17 95 0.0 0.0 0.00 0.08 0.08 91 1008.0
20260506015640 17 103 0.0 0.0 0.03 0.08 0.08 91 1007.6
20260506015137 17 106 0.0 0.0 0.03 0.08 0.08 91 1007.6
20260506014635 17 104 0.0 0.0 0.03 0.08 0.08 90 1007.6
20260506014130 17 104 0.0 0.0 0.03 0.08 0.08 90 1007.6
20260506013629 17 101 0.0 0.0 0.03 0.08 0.08 90 1008.0
20260506013125 17 106 0.0 0.0 0.03 0.08 0.08 89 1007.6
20260506012621 17 106 0.0 0.0 0.00 0.05 0.05 89 1007.6
20260506012118 17 107 0.0 0.0 0.00 0.05 0.05 89 1007.6
20260506011616 17 106 0.0 0.0 0.00 0.05 0.05 89 1007.6
20260506011112 17 106 0.0 0.0 0.00 0.05 0.05 89 1007.6
20260506010606 17 105 0.0 0.0 0.00 0.05 0.05 89 1007.3
20260506005559 17 105 0.0 0.0 0.00 0.05 0.05 89 1007.6
20260506005055 17 115 0.0 0.0 0.00 0.05 0.05 89 1007.3
20260506004552 17 98 0.0 0.0 0.00 0.05 0.05 89 1007.6
20260506004049 17 116 0.0 0.0 0.00 0.05 0.05 89 1007.3
20260506003545 17 105 0.0 0.0 0.00 0.05 0.05 89 1007.3
20260506003042 17 105 0.0 0.0 0.00 0.05 0.05 89 1007.3
20260506002537 17 105 0.0 0.0 0.00 0.05 0.05 89 1007.3
20260506002034 17 103 0.0 0.0 0.00 0.05 0.05 88 1006.9
20260506001530 17 105 0.0 0.0 0.00 0.05 0.05 88 1006.6
20260506001027 18 104 0.0 0.0 0.00 0.05 0.05 88 1006.6
20260506000525 18 98 0.0 0.0 0.00 0.05 0.05 88 1006.6
20260506000022 18 98 0.0 0.0 0.00 0.05 0.05 88 1006.6
20260505235520 18 106 0.0 0.0 0.00 0.05 0.05 87 1006.6
20260505235016 18 106 0.0 0.0 0.00 0.05 0.05 87 1006.3
20260505234514 18 108 0.0 0.0 0.00 0.05 0.05 86 1006.3
20260505234010 18 108 0.0 0.0 0.00 0.05 0.05 86 1006.6
20260505233508 18 109 0.0 0.0 0.00 0.05 0.05 86 1006.3
20260505233005 18 106 0.0 0.0 0.00 0.05 0.05 87 1006.3
20260505232503 18 106 0.0 0.0 0.00 0.05 0.05 87 1006.3
20260505232000 18 105 0.0 0.0 0.00 0.05 0.05 86 1005.9
20260505231457 18 105 0.0 0.0 0.00 0.05 0.05 86 1005.9
20260505230955 18 105 0.0 0.0 0.00 0.05 0.05 86 1005.9
20260505230453 18 112 0.0 0.0 0.00 0.05 0.05 86 1006.3
20260505225949 18 106 0.0 0.0 0.00 0.05 0.05 85 1005.9
20260505225446 18 106 0.0 0.0 0.00 0.05 0.05 85 1006.3
20260505224942 18 106 0.0 0.0 0.00 0.05 0.05 84 1006.3
20260505224439 18 106 0.0 0.0 0.00 0.05 0.05 82 1006.3
20260505223936 18 106 0.0 0.0 0.00 0.05 0.05 81 1006.3
20260505223433 18 112 0.0 0.0 0.00 0.05 0.05 79 1005.9
20260505222929 18 116 0.0 0.0 0.00 0.05 0.05 79 1005.9
20260505222426 18 113 0.0 3.2 0.00 0.05 0.05 80 1006.3
20260505221922 18 105 0.0 0.0 0.00 0.05 0.05 80 1006.3
20260505221419 18 74 11.3 16.1 0.00 0.05 0.05 79 1006.3
20260505220916 18 172 4.8 4.8 0.00 0.05 0.05 79 1006.3
20260505220413 18 121 4.8 8.0 0.00 0.05 0.05 79 1006.3
20260505215911 19 105 0.0 0.0 0.05 0.05 0.05 77 1006.3
20260505215409 20 52 1.6 4.8 0.05 0.05 0.05 75 1006.3
20260505214907 20 98 0.0 0.0 0.05 0.05 0.05 73 1006.3
20260505214404 21 191 4.8 4.8 0.03 0.03 0.03 65 1005.9
20260505213901 22 225 4.8 4.8 0.00 0.00 0.00 60 1006.3
20260505213359 22 78 3.2 4.8 0.00 0.00 0.00 57 1006.3
20260505212854 23 103 9.7 14.5 0.00 0.00 0.00 55 1005.3
20260505212352 24 119 0.0 3.2 0.00 0.00 0.00 53 1004.9
20260505211848 26 81 8.0 11.3 0.00 0.00 0.00 45 1004.9
20260505211346 26 119 0.0 0.0 0.00 0.00 0.00 32 1004.2
20260505210842 26 119 0.0 0.0 0.00 0.00 0.00 31 1004.2
20260505210339 27 104 0.0 0.0 0.00 0.00 0.00 29 1003.6
20260505205835 27 119 0.0 0.0 0.00 0.00 0.00 29 1003.6
20260505205334 27 108 0.0 0.0 0.00 0.00 0.00 29 1003.6
20260505204830 27 132 0.0 0.0 0.00 0.00 0.00 29 1003.2
20260505204328 27 106 4.8 8.0 0.00 0.00 0.00 29 1003.6
20260505203826 27 123 1.6 3.2 0.00 0.00 0.00 29 1003.2
20260505203322 27 103 0.0 0.0 0.00 0.00 0.00 30 1003.2
20260505202818 27 279 4.8 8.0 0.00 0.00 0.00 30 1003.2
20260505202314 27 153 3.2 4.8 0.00 0.00 0.00 29 1003.2
20260505201811 27 154 1.6 3.2 0.00 0.00 0.00 30 1003.2
20260505201309 28 74 0.0 3.2 0.00 0.00 0.00 30 1003.2
20260505200807 28 123 1.6 3.2 0.00 0.00 0.00 31 1003.2
20260505200304 28 171 4.8 8.0 0.00 0.00 0.00 32 1003.2
20260505195759 28 74 3.2 8.0 0.00 0.00 0.00 32 1003.6
20260505195257 28 133 1.6 3.2 0.00 0.00 0.00 33 1003.6
20260505194753 28 169 0.0 0.0 0.00 0.00 0.00 32 1003.2
20260505194250 28 214 6.4 8.0 0.00 0.00 0.00 34 1003.2
20260505193746 28 203 6.4 8.0 0.00 0.00 0.00 34 1003.6
20260505193244 29 208 9.7 22.5 0.00 0.00 0.00 32 1003.6
20260505192742 30 111 1.6 3.2 0.00 0.00 0.00 39 1003.6
20260505192239 29 112 1.6 3.2 0.00 0.00 0.00 39 1003.6
20260505191737 28 148 0.0 3.2 0.00 0.00 0.00 39 1003.6
20260505191235 28 42 1.6 4.8 0.00 0.00 0.00 40 1003.6
20260505190731 28 113 4.8 8.0 0.00 0.00 0.00 42 1003.6